We konden geen weer-waarchuwingen ophalen. Ga rechtstreeks naar de Meteoalarm site : www.meteoalarm.eu en controleer daar .



Onweer radar Meer informatie blitzortung!


Regen radar Meer informatie rain snow radar


Bezoek onze andere website:

Template documentation
and downloads

And another site



15 daagse weersverwachting Zürich (CH)

  • Overzicht
  • Per uur
  • 15 dagen
  • Extra
  • Vergelijk
  • Kaarten
  • Dagkaart
  • Meer »
  • Info
  • Statistieken
  • Directe link
    Temp 6h Neerslag Wind  
 06:28     20:32    Daglengte: 14:04 Vandaag
02:00
19°
 
1
08:00
17°
 
1
14:00
22°
 
2
20:00
20°
27.9 mm
1
warningclass
 06:29     20:30    Daglengte: 14:01 Morgen
02:00
18°
 
1
warningclass
08:00
18°
35.9 mm
2
14:00
20°
22.0 mm
3
20:00
20°
89.8 mm
2
 06:30     20:28    Daglengte: 13:58 Zaterdag 20 Aug
02:00
17°
109.6 mm
3
08:00
17°
89.1 mm
1
14:00
21°
21.6 mm
3
20:00
20°
65.9 mm
2
Locatie info
Region: Zürich
Latitude: 47.3771°N
Longitude: 8.5396°E
429 masl
Postcode: 8001
Temp/Neerslag /Baro Onweer/Dauwpunt
    Temp Baro 1h Neerslag Dauwpunt Wind UV Bewolking  
 06:28     20:32    Daglengte: 14:04 Vandaag
01:00
19°
1012.5 hPa
48%
18.4°
1
Windvlaag: 0 m/s
56%
02:00
19°
1012.3 hPa
26%
18.1°
1
Windvlaag: -0.8 m/s
21%
03:00
18°
1012.0 hPa
17%
17.7°
2
Windvlaag: -1.6 m/s
22%
04:00
18°
1011.9 hPa
19%
17.1°
2
Windvlaag: -1.8 m/s
39%
05:00
18°
1011.4 hPa
20%
16.6°
1
Windvlaag: -1.4 m/s
35%
06:00
17°
1011.3 hPa
15%
16.3°
1
Windvlaag: -1.2 m/s
60%
07:00
17°
1011.3 hPa
15%
16.3°
1
Windvlaag: -1.6 m/s
80%
08:00
17°
1011.6 hPa
16%
16.3°
1
Windvlaag: -1.4 m/s
80%
09:00
18°
1011.7 hPa
18%
17.2°
1
Windvlaag: -2 m/s
86%
10:00
19°
1011.7 hPa
20%
17.6°
1
Windvlaag: -2.2 m/s
86%
11:00
20°
1012.0 hPa
23%
18.1°
1
Windvlaag: -2.4 m/s
86%
12:00
20°
1011.8 hPa
62%
18.4°
1
Windvlaag: -2 m/s
86%
13:00
21°
1011.7 hPa
66%
18.6°
2
Windvlaag: -0.8 m/s
84%
14:00
22°
1011.6 hPa
81%
19.2°
2
Windvlaag: -0.4 m/s
84%
15:00
22°
1011.4 hPa
82%
19.2°
2
Windvlaag: 1.5 m/s
81%
16:00
22°
1011.2 hPa 3.6 mm
78%
19.2°
2
Windvlaag: 1.9 m/s
86%
17:00
21°
1011.0 hPa 4.0 mm
82%
18.5°
2
Windvlaag: 1.8 m/s
82% warningclass
18:00
21°
1011.0 hPa 6.0 mm
82%
18.2°
1
Windvlaag: 1.7 m/s
59% warningclass
19:00
21°
1011.1 hPa 7.0 mm
82%
18.1°
2
Windvlaag: 1.5 m/s
86% warningclass
20:00
20°
1011.4 hPa 7.4 mm
82%
17.8°
1
Windvlaag: 0.5 m/s
86% warningclass
21:00
19°
1011.8 hPa
82%
17.8°
1
Windvlaag: 0.7 m/s
84% warningclass
22:00
19°
1012.3 hPa
82%
17.6°
1
Windvlaag: 1 m/s
79%
23:00
19°
1012.7 hPa
82%
17.5°
1
Windvlaag: 2 m/s
78%
 06:29     20:30    Daglengte: 14:01 Morgen
00:00
19°
1012.8 hPa
82%
17.4°
1
Windvlaag: 1.9 m/s
81% warningclass
01:00
18°
1012.8 hPa
82%
17.7°
1
Windvlaag: 2.6 m/s
80%
02:00
18°
1012.7 hPa
82%
17.7°
1
Windvlaag: 2.8 m/s
58% warningclass
03:00
18°
1012.6 hPa
82%
17.6°
2
Windvlaag: 2.3 m/s
83% warningclass
04:00
18°
1012.6 hPa
82%
17.2°
2
Windvlaag: 2.1 m/s
86% warningclass
05:00
18°
1012.6 hPa 7.9 mm
82%
17.1°
1
Windvlaag: 2 m/s
86%
06:00
17°
1012.8 hPa 8.8 mm
82%
16.9°
2
Windvlaag: 1.8 m/s
86%
07:00
17°
1013.3 hPa 9.7 mm
82%
16.6°
2
Windvlaag: 1.4 m/s
86% warningclass
08:00
18°
1013.6 hPa 9.5 mm
72%
16.8°
2
Windvlaag: 1.7 m/s
86%
09:00
18°
1013.8 hPa
32%
17.0°
3
Windvlaag: 1.8 m/s
86%
10:00
18°
1014.2 hPa 10.8 mm
77%
17.2°
2
Windvlaag: 2 m/s
86%
11:00
19°
1014.6 hPa 11.2 mm
82%
17.7°
2
Windvlaag: 2 m/s
69%
12:00
19°
1014.7 hPa
82%
18.1°
2
Windvlaag: 1.7 m/s
68%
13:00
20°
1014.7 hPa
82%
18.3°
2
Windvlaag: 2.7 m/s
86%
14:00
20°
1014.7 hPa
82%
18.5°
3
Windvlaag: 3.2 m/s
57%
15:00
20°
1014.6 hPa 13.7 mm
82%
18.2°
3
Windvlaag: 1.7 m/s
86%
16:00
21°
1014.7 hPa 13.4 mm
81%
19.3°
3
Windvlaag: 1.5 m/s
79% warningclass
17:00
21°
1014.9 hPa 13.3 mm
93%
17.5°
2
Windvlaag: 1.1 m/s
94% warningclass
18:00
21°
1015.1 hPa 14.0 mm
100%
17.6°
3
Windvlaag: 0.8 m/s
82% warningclass
19:00
20°
1015.6 hPa 13.6 mm
98%
17.5°
3
Windvlaag: 0.5 m/s
72% warningclass
20:00
20°
1016.1 hPa 21.7 mm
88%
17.1°
2
Windvlaag: 0.2 m/s
70%
21:00
19°
1016.9 hPa
70%
16.2°
3
Windvlaag: 2.1 m/s
70%
22:00
19°
1017.5 hPa 21.6 mm
35%
14.9°
3
Windvlaag: 3.8 m/s
61%
23:00
19°
1017.8 hPa 22.0 mm
41%
14.1°
3
Windvlaag: 4.3 m/s
63%
 06:30     20:28    Daglengte: 13:58 Zaterdag 20 Aug
00:00
18°
1018.0 hPa 21.8 mm
31%
13.9°
3
Windvlaag: 4.9 m/s
57%
01:00
17°
1018.2 hPa 22.1 mm
23%
13.4°
3
Windvlaag: 5.6 m/s
61%
02:00
17°
1017.9 hPa 22.2 mm
21%
13.6°
3
Windvlaag: 5.5 m/s
57%
03:00
17°
1017.8 hPa 22.4 mm
21%
13.3°
3
Windvlaag: 5.1 m/s
63%
04:00
17°
1017.7 hPa 22.4 mm
21%
13.4°
2
Windvlaag: 5 m/s
65%
05:00
17°
1017.8 hPa 22.5 mm
21%
13.4°
2
Windvlaag: 4.3 m/s
58%
06:00
17°
1017.6 hPa 21.8 mm
21%
13.5°
2
Windvlaag: 4 m/s
49%
07:00
16°
1018.0 hPa
21%
12.6°
2
Windvlaag: 4.3 m/s
31%
08:00
17°
1018.4 hPa
21%
12.4°
1
Windvlaag: 3.3 m/s
45%
09:00
18°
1018.6 hPa
21%
13.6°
2
Windvlaag: 3.6 m/s
53%
10:00
19°
1018.5 hPa 21.6 mm
76%
14.9°
2
Windvlaag: 3 m/s
50%
11:00
20°
1018.6 hPa
88%
15.8°
3
Windvlaag: 2.4 m/s
54%
12:00
21°
1019.0 hPa
88%
15.8°
3
Windvlaag: 3.3 m/s
81%
13:00
21°
1019.0 hPa
41%
14.9°
3
Windvlaag: 2.7 m/s
51%
14:00
21°
1018.6 hPa
87%
15.9°
3
Windvlaag: 2.6 m/s
79%
15:00
22°
1018.5 hPa 22.0 mm
98%
15.2°
3
Windvlaag: 2.8 m/s
98%
16:00
21°
1018.3 hPa 21.9 mm
100%
13.4°
3
Windvlaag: 3.8 m/s
54%
17:00
22°
1018.0 hPa
95%
13.0°
3
Windvlaag: 4.4 m/s
48%
18:00
22°
1018.0 hPa
97%
13.1°
3
Windvlaag: 4.7 m/s
24%
19:00
21°
1018.3 hPa
95%
13.4°
3
Windvlaag: 4.3 m/s
43%
20:00
20°
1018.8 hPa 22.0 mm
95%
14.5°
2
Windvlaag: 4.2 m/s
24%
21:00
19°
1019.2 hPa 21.9 mm
88%
14.8°
1
Windvlaag: 5.6 m/s
10%
22:00
18°
1019.3 hPa
50%
14.9°
1
Windvlaag: 3.7 m/s
41%
23:00
18°
1019.1 hPa
97%
14.6°
1
Windvlaag: 1.9 m/s
10%
 06:32     20:27    Daglengte: 13:55 Zondag 21 Aug
00:00
18°
1019.0 hPa
96%
14.5°
1
Windvlaag: 1.3 m/s
37%
Temp/Neerslag /Baro Onweer/Dauwpunt
    Temp Baro Neerslag Dauwpunt Wind Bewolking  
 06:28     20:32    Daglengte: 14:04 Vandaag
02:00
19°
1012.3 hPa   18.1°
1
21%
05:00
18°
1011.4 hPa   16.6°
1
35%
08:00
17°
1011.6 hPa   16.3°
1
80%
11:00
20°
1012.0 hPa   18.1°
1
86%
14:00
22°
1011.6 hPa   19.2°
2
84%
17:00
21°
1011.0 hPa 7.7 mm 18.5°
2
82% warningclass
20:00
20°
1011.4 hPa 20.3 mm 17.8°
1
86% warningclass
23:00
19°
1012.7 hPa   17.5°
1
78%
 06:29     20:30    Daglengte: 14:01 Morgen
02:00
18°
1012.7 hPa   17.7°
1
58% warningclass
05:00
18°
1012.6 hPa 7.9 mm 17.1°
1
86%
08:00
18°
1013.6 hPa 27.9 mm 16.8°
2
86%
11:00
19°
1014.6 hPa 22.0 mm 17.7°
2
69%
14:00
20°
1014.7 hPa   18.5°
3
57%
17:00
21°
1014.9 hPa 40.5 mm 17.5°
2
94% warningclass
20:00
20°
1016.1 hPa 49.3 mm 17.1°
2
70%
23:00
19°
1017.8 hPa 43.6 mm 14.1°
3
63%
 06:30     20:28    Daglengte: 13:58 Zaterdag 20 Aug
02:00
17°
1017.9 hPa 66.0 mm 13.6°
3
57%
05:00
17°
1017.8 hPa 67.3 mm 13.4°
2
58%
08:00
17°
1018.4 hPa 21.8 mm 12.4°
1
45%
11:00
20°
1018.6 hPa 21.6 mm 15.8°
3
54%
14:00
21°
1018.6 hPa   15.9°
3
79%
17:00
22°
1018.0 hPa 43.9 mm 13.0°
3
48%
20:00
20°
1018.8 hPa 22.0 mm 14.5°
2
24%
23:00
18°
1019.1 hPa 21.9 mm 14.6°
1
10%
 06:32     20:27    Daglengte: 13:55 Zondag 21 Aug
02:00
17°
1018.8 hPa 65.7 mm 13.8°
1
28%
05:00
13°
1017.4 hPa 86.2 mm 13.2°
1
1%
08:00
15°
1017.6 hPa 86.2 mm 14.1°
0
1%
11:00
20°
1016.4 hPa 86.4 mm 14.9°
1
1%
14:00
21°
1015.2 hPa 87.8 mm 13.2°
1
1%
17:00
22°
1014.8 hPa 89.9 mm 11.6°
1
1%
20:00
17°
1015.6 hPa 91.3 mm 13.4°
1
1%
23:00
16°
1016.9 hPa 92.0 mm 13.7°
1
1%
 06:33     20:25    Daglengte: 13:52 Maandag 22 Aug
02:00
15°
1016.2 hPa 92.1 mm 13.3°
0
1%
05:00
13°
1016.5 hPa 92.1 mm 12.7°
1
1%
08:00
14°
1017.1 hPa 92.1 mm 13.1°
0
1%
11:00
20°
1016.6 hPa 92.1 mm 10.9°
2
0%
14:00
24°
1015.4 hPa 92.1 mm 11.1°
3
0%
17:00
24°
1014.5 hPa 92.1 mm 10.8°
2
1%
20:00
19°
1015.7 hPa 92.1 mm 11.3°
2
1%
23:00
16°
1016.8 hPa 92.1 mm 10.4°
1
1%
 06:34     20:23    Daglengte: 13:49 Dinsdag 23 Aug
02:00
13°
1017.4 hPa 92.1 mm 10.8°
1
0%
05:00
12°
1018.2 hPa 92.1 mm 10.3°
1
0%
08:00
13°
1018.9 hPa 92.1 mm 10.7°
1
0%
11:00
20°
1017.8 hPa 92.1 mm 11.7°
2
0%
14:00
25°
1016.4 hPa 92.1 mm 8.3°
4
0%
17:00
25°
1015.7 hPa 92.1 mm 8.8°
4
0%
20:00
18°
1016.3 hPa 92.1 mm 12.0°
2
0%
23:00
14°
1017.7 hPa 92.1 mm 10.1°
1
0%
 06:36     20:21    Daglengte: 13:45 Woensdag 24 Aug
02:00
12°
1017.8 hPa 92.1 mm 9.7°
1
0%
05:00
11°
1018.0 hPa 92.1 mm 9.5°
1
0%
08:00
13°
1018.4 hPa 92.1 mm 9.9°
1
0%
11:00
20°
1017.7 hPa 92.1 mm 10.7°
2
1%
14:00
24°
1016.2 hPa 92.1 mm 9.9°
2
1%
17:00
26°
1015.3 hPa 92.1 mm 9.8°
3
1%
20:00
19°
1016.1 hPa 92.1 mm 13.3°
1
0%
23:00
15°
1017.6 hPa   12.1°
1
0%
 06:37     20:19    Daglengte: 13:42 Donderdag 25 Aug
02:00
13°
1017.6 hPa 184.2 mm 11.9°
1
0%
08:00
14°
1018.5 hPa 184.2 mm 12.3°
1
0%
14:00
26°
1016.2 hPa 184.2 mm 12.9°
1
0%
20:00
21°
1015.6 hPa 184.2 mm 13.5°
0
0%
 06:38     20:17    Daglengte: 13:39 Vrijdag 26 Aug
02:00
16°
1017.1 hPa 184.2 mm 13.2°
1
0%
08:00
16°
1016.9 hPa 184.2 mm 13.6°
0
0%
14:00
28°
Voelt als: 28.3°
1014.2 hPa 184.2 mm 14.6°
1
1%
20:00
22°
1013.1 hPa 184.2 mm 15.3°
1
0%
 06:40     20:15    Daglengte: 13:35 Zaterdag 27 Aug
02:00
18°
1014.8 hPa 184.2 mm 15.0°
1
1%
08:00
17°
1016.4 hPa 185.8 mm 15.9°
0
1%
14:00
29°
1015.1 hPa 186.1 mm 15.9°
1
1%
20:00
21°
1018.5 hPa 1.1 mm 13.2°
1
47%
 06:41     20:13    Daglengte: 13:32 Zondag 28 Aug
02:00
17°
1019.7 hPa 0.7 mm 12.8°
0
56%
08:00
17°
1020.0 hPa 0.6 mm 13.8°
0
57%
14:00
25°
1018.8 hPa 0.5 mm 13.8°
1
52%
20:00
21°
1019.4 hPa 1.2 mm 13.4°
1
45%
 06:42     20:11    Daglengte: 13:29 Maandag 29 Aug
02:00
17°
1020.5 hPa 0.8 mm 12.9°
0
54%
08:00
16°
1020.5 hPa 1.0 mm 13.2°
0
51%
14:00
25°
1019.3 hPa 0.8 mm 13.3°
1
48%
20:00
20°
1019.3 hPa 1.0 mm 12.6°
1
54%
 06:44     20:10    Daglengte: 13:26 Dinsdag 30 Aug
02:00
16°
1020.3 hPa 0.6 mm 12.1°
0
59%
08:00
16°
1020.1 hPa 0.4 mm 12.5°
0
50%
14:00
24°
1018.4 hPa 0.5 mm 12.6°
1
50%
20:00
19°
1018.4 hPa 1.7 mm 12.5°
0
53%
 06:45     20:08    Daglengte: 13:23 Woensdag 31 Aug
02:00
15°
1019.4 hPa 0.8 mm 11.6°
0
48%
08:00
15°
1019.0 hPa 0.4 mm 12.2°
0
49%
14:00
24°
1017.2 hPa 0.4 mm 11.7°
1
45%
20:00
19°
1017.5 hPa 1.8 mm 12.2°
1
48%
 06:46     20:06    Daglengte: 13:20 Donderdag 01 Sep
02:00
15°
1018.9 hPa 0.6 mm 11.1°
0
46%
08:00
14°
1019.0 hPa 0.4 mm 11.0°
0
48%
14:00
23°
1017.5 hPa 0.7 mm 10.9°
1
39%
20:00
18°
1018.0 hPa 0.8 mm 10.7°
1
41%
  CAPE Lifted Index Hail Supercell Tornado SRH 3km CL BTM PRES CL TOP PRES Swiss DWD icon SMHI TS
 06:28     20:32    Daglengte: 14:04 Vandaag
01:00 0 J/kg -2.5 K 0 % 0 % 0 % 0 m²/s² 0 0 -2.11 3
02:00 1 J/kg -1.9 K 0 % 0 % 0 % 0 m²/s² 0 0 -1.18 2
03:00 1 J/kg -0.6 K 0 % 0 % 0 % 0 m²/s² 0 0 0.03 2
04:00 1 J/kg -0.7 K 0 % 0 % 0 % 0 m²/s² 0 0 -0.49 3
05:00 0 J/kg -0.1 K 0 % 0 % 0 % 0 m²/s² 0 0 -0.1 3
06:00 0 J/kg -0.5 K 0 % 0 % 0 % 0 m²/s² 0 0 -0.47 3
07:00 0 J/kg 0.3 K 0 % 0 % 0 % 0 m²/s² 0 0 2.1 3
08:00 1 J/kg 0.9 K 0 % 0 % 0 % 0 m²/s² 0 0 2.91 3
09:00 8 J/kg 0.0 K 0 % 0 % 0 % 0 m²/s² 0 0 0.96 3
10:00 11 J/kg 0.3 K 0 % 0 % 0 % 0 m²/s² 0 0 1.86 3
11:00 120 J/kg -0.5 K 0 % 0 % 0 % 0 m²/s² 0 0 0.55 3
12:00 183 J/kg -0.7 K 0 % 0 % 0 % 0 m²/s² 0 0 0.41 3
13:00 275 J/kg -1.3 K 0 % 0 % 0 % 0 m²/s² 0 0 0.32 3
14:00 211 J/kg -0.7 K 0 % 0 % 0 % 0 m²/s² 0 0 0.71 3
15:00 271 J/kg -1.4 K 0 % 0 % 0 % 0 m²/s² 0 0 -0.74 3
16:00 366 J/kg -2.2 K 0 % 0 % 0 % 0 m²/s² 0 0 -1.75 3
17:00 420 J/kg -2.6 K 0 % 0 % 0 % 0 m²/s² 0 0 -2.12 95
18:00 307 J/kg -1.3 K 0 % 0 % 0 % 0 m²/s² 0 0 -1.3 95
19:00 153 J/kg -0.7 K 0 % 0 % 0 % 0 m²/s² 0 0 -0.4 95
20:00 226 J/kg -1.1 K 0 % 0 % 0 % 0 m²/s² 0 0 -0.98 95
21:00 309 J/kg -1.8 K 0 % 0 % 0 % 0 m²/s² 0 0 -1.62 95
22:00 416 J/kg -1.9 K 0 % 0 % 0 % 0 m²/s² 0 0 -1.9 80
23:00 397 J/kg -1.9 K 0 % 0 % 0 % 0 m²/s² 0 0 -1.87 80
 06:29     20:30    Daglengte: 14:01 Morgen
00:00 374 J/kg -1.6 K 0 % 0 % 0 % 0 m²/s² 0 0 -1.42 95
01:00 254 J/kg -1.0 K 0 % 0 % 0 % 0 m²/s² 0 0 -0.73 80
02:00 124 J/kg -0.7 K 0 % 0 % 0 % 0 m²/s² 0 0 0.53 95
03:00 20 J/kg -0.3 K 0 % 0 % 0 % 0 m²/s² 0 0 1.5 95
04:00 45 J/kg -0.9 K 0 % 0 % 0 % 0 m²/s² 0 0 0.12 95
05:00 14 J/kg -1.1 K 0 % 0 % 0 % 0 m²/s² 0 0 -0.23 61
06:00 0 J/kg -0.9 K 0 % 0 % 0 % 0 m²/s² 0 0 -0.81 61
07:00 0 J/kg -0.8 K 0 % 0 % 0 % 0 m²/s² 0 0 -0.53 95
08:00 0 J/kg -1.0 K 0 % 0 % 0 % 0 m²/s² 0 0 -1 80
09:00 0 J/kg -1.2 K 0 % 0 % 0 % 0 m²/s² 0 0 -1.2 3
10:00 0 J/kg -0.2 K 0 % 0 % 0 % 0 m²/s² 0 0 -0.17 80
11:00 0 J/kg -0.8 K 0 % 0 % 0 % 0 m²/s² 0 0 -0.8 80
12:00 70 J/kg -0.8 K 0 % 0 % 0 % 0 m²/s² 0 0 -0.8 3
13:00 223 J/kg -1.1 K 0 % 0 % 0 % 0 m²/s² 0 0 -1.1 3
14:00 445 J/kg -1.9 K 0 % 0 % 0 % 0 m²/s² 0 0 -1.9 3
15:00 540 J/kg -2.0 K 0 % 0 % 0 % 0 m²/s² 0 0 -2 63
16:00 625 J/kg -2.2 K 0 % 0 % 0 % 0 m²/s² 0 0 -2.11 61
17:00 740 J/kg -3.0 K 0 % 0 % 0 % 0 m²/s² 0 0 -2.82 80
18:00 750 J/kg -3.2 K 0 % 0 % 0 % 0 m²/s² 0 0 -2.81 95
19:00 689 J/kg -3.0 K 0 % 0 % 0 % 0 m²/s² 0 0 -2.34 2
20:00 658 J/kg -2.1 K 0 % 0 % 0 % 0 m²/s² 0 0 -1.38 3
21:00 324 J/kg -0.5 K 0 % 0 % 0 % 0 m²/s² 0 0 0.7 2
22:00 125 J/kg 0.5 K 0 % 0 % 0 % 0 m²/s² 0 0 2.27 2
23:00 25 J/kg 1.6 K 0 % 0 % 0 % 0 m²/s² 0 0 3.49 2
 06:30     20:28    Daglengte: 13:58 Zaterdag 20 Aug
00:00 0 J/kg 1.7 K 0 % 0 % 0 % 0 m²/s² 0 0 3.74 2
01:00 0 J/kg 1.7 K 0 % 0 % 0 % 0 m²/s² 0 0 4.01 1
02:00 0 J/kg 2.2 K 0 % 0 % 0 % 0 m²/s² 0 0 4.03 1
03:00 0 J/kg 1.8 K 0 % 0 % 0 % 0 m²/s² 0 0 3.27 1
04:00 0 J/kg 1.9 K 0 % 0 % 0 % 0 m²/s² 0 0 3.28 2
05:00 0 J/kg 1.3 K 0 % 0 % 0 % 0 m²/s² 0 0 2.56 2
06:00 0 J/kg 1.0 K 0 % 0 % 0 % 0 m²/s² 0 0 2.38 1
07:00 0 J/kg 0.9 K 0 % 0 % 0 % 0 m²/s² 0 0 2.28 2
08:00 0 J/kg 0.6 K 0 % 0 % 0 % 0 m²/s² 0 0 1.74 2
09:00 0 J/kg 0.9 K 0 % 0 % 0 % 0 m²/s² 0 0 1.71 2
10:00 40 J/kg 0.3 K 0 % 0 % 0 % 0 m²/s² 0 0 1.02 80
11:00 118 J/kg -0.3 K 0 % 0 % 0 % 0 m²/s² 0 0 0.33 3
12:00 280 J/kg -0.8 K 0 % 0 % 0 % 0 m²/s² 0 0 -0.5 3
13:00 451 J/kg -1.2 K 0 % 0 % 0 % 0 m²/s² 0 0 -0.66 3
14:00 497 J/kg -1.4 K 0 % 0 % 0 % 0 m²/s² 0 0 -0.74 3
15:00 586 J/kg -2.0 K 0 % 0 % 0 % 0 m²/s² 0 0 -1.46 80
16:00 521 J/kg -1.7 K 0 % 0 % 0 % 0 m²/s² 0 0 -0.86 3
17:00 552 J/kg -1.9 K 0 % 0 % 0 % 0 m²/s² 0 0 -0.13 3
18:00 646 J/kg -2.3 K 0 % 0 % 0 % 0 m²/s² 0 0 1.21 2
19:00 671 J/kg -2.4 K 0 % 0 % 0 % 0 m²/s² 0 0 1.5 3
20:00 659 J/kg -2.4 K 0 % 0 % 0 % 0 m²/s² 0 0 1.92 80
21:00 451 J/kg -1.7 K 0 % 0 % 0 % 0 m²/s² 0 0 3.1 2
22:00 321 J/kg -1.1 K 0 % 0 % 0 % 0 m²/s² 0 0 3.7 3
23:00 85 J/kg -0.3 K 0 % 0 % 0 % 0 m²/s² 0 0 5.31 3
 06:32     20:27    Daglengte: 13:55 Zondag 21 Aug
00:00 37 J/kg -0.1 K 0 % 0 % 0 % 0 m²/s² 0 0 5.99 2
Temp Baro Wind Neerslag
  EWN Forecast EWN WRFDA DWD ICON FMI HIRLAM MET Norway GFS
 06:28     20:32    Daglengte: 14:04 Vandaag
02:00 18.9° 1012.3 hPa 1.3 m/s 0.0 mm 16.5° 1012.6 hPa 2.6 m/s 26.3 mm 19.4° 1013.6 hPa 0.5 m/s -1.4 mm 17.6° 1011.9 hPa 1.8 m/s 0.0 mm 17.0° 1014.4 hPa 1.3 m/s
05:00 17.5° 1011.4 hPa 1.5 m/s 0.0 mm 16.1° 1011.4 hPa 2.6 m/s 49.2 mm 17.6° 1012.5 hPa 1.2 m/s 0.0 mm 16.6° 1010.6 hPa 2.2 m/s 0.0 mm 16.7° 1013.5 hPa 1.0 m/s
08:00 17.4° 1011.6 hPa 1.0 m/s 0.0 mm 16.3° 1010.5 hPa 1.3 m/s 50.8 mm 17.4° 1012.9 hPa 0.9 m/s 0.0 mm 16.1° 1011.1 hPa 1.5 m/s 0.0 mm 17.0° 1014.2 hPa 0.7 m/s
11:00 19.7° 1012.0 hPa 0.9 m/s 0.0 mm 19.7° 1012.0 hPa 1.3 m/s 51.3 mm 19.7° 1013.4 hPa 1.6 m/s 0.0 mm 17.6° 1011.8 hPa 0.2 m/s 0.0 mm 19.6° 1013.6 hPa 1.1 m/s
14:00 21.5° 1011.6 hPa 1.7 m/s 0.0 mm 23.0° 1009.0 hPa 2.7 m/s 51.5 mm 21.4° 1012.6 hPa 1.0 m/s 0.1 mm 19.3° 1011.8 hPa 1.4 m/s 0.0 mm 21.8° 1012.1 hPa 2.0 m/s
17:00 21.5° 1011.0 hPa 1.5 m/s 7.7 mm 23.3° 1008.1 hPa 2.6 m/s 51.7 mm 20.3° 1012.2 hPa 1.2 m/s 1.0 mm 21.3° 1010.0 hPa 1.2 m/s 0.0 mm 20.0° 1012.0 hPa 1.3 m/s
20:00 19.9° 1011.4 hPa 1.4 m/s 20.3 mm 19.3° 1008.5 hPa 1.6 m/s 89.5 mm 19.0° 1012.4 hPa 0.8 m/s 4.9 mm 21.0° 1010.4 hPa 1.2 m/s 0.0 mm 18.1° 1012.2 hPa 1.4 m/s
23:00 18.8° 1012.7 hPa 1.3 m/s 0.0 mm 18.6° 1009.5 hPa 1.7 m/s 102.1 mm 18.3° 1013.4 hPa 0.9 m/s 4.9 mm 20.2° 1011.1 hPa 1.1 m/s 0.0 mm 17.1° 1012.8 hPa 0.6 m/s
 06:29     20:30    Daglengte: 14:01 Morgen
02:00 18.1° 1012.7 hPa 1.4 m/s 0.0 mm 17.7° 1009.6 hPa 3.2 m/s 108.8 mm 17.6° 1013.6 hPa 1.1 m/s 3.1 mm 18.4° 1010.9 hPa 1.2 m/s 0.0 mm 16.3° 1013.1 hPa 0.9 m/s
05:00 17.5° 1012.6 hPa 1.4 m/s 7.9 mm 17.1° 1009.3 hPa 3.7 m/s 110.3 mm 17.5° 1013.4 hPa 1.0 m/s 3.2 mm 17.0° 1011.1 hPa 1.0 m/s 0.0 mm 16.4° 1012.4 hPa 0.9 m/s
08:00 17.6° 1013.6 hPa 2.1 m/s 27.9 mm 16.7° 1009.8 hPa 5.3 m/s 122.9 mm 17.7° 1014.9 hPa 1.8 m/s 3.7 mm 17.8° 1012.2 hPa 1.7 m/s 0.0 mm 16.1° 1013.2 hPa 1.4 m/s
11:00 19.0° 1014.6 hPa 2.2 m/s 22.0 mm 17.1° 1011.3 hPa 6.1 m/s 153.0 mm 19.4° 1016.1 hPa 1.5 m/s 0.6 mm 19.5° 1013.6 hPa 1.8 m/s 0.0 mm 16.6° 1015.4 hPa 1.9 m/s
14:00 20.4° 1014.7 hPa 2.6 m/s 0.0 mm 18.1° 1012.5 hPa 5.0 m/s 170.1 mm 21.1° 1016.6 hPa 2.5 m/s 0.2 mm 20.7° 1013.9 hPa 2.4 m/s 0.0 mm 17.9° 1015.9 hPa 2.3 m/s
17:00 21.1° 1014.9 hPa 2.3 m/s 40.5 mm 21.2° 1014.0 hPa 2.1 m/s 189.4 mm 21.8° 1016.3 hPa 2.0 m/s 2.6 mm 18.0° 1016.4 hPa 2.4 m/s
20:00 19.7° 1016.1 hPa 2.0 m/s 49.3 mm 19.8° 1014.2 hPa 2.1 m/s 193.1 mm 20.0° 1017.7 hPa 1.4 m/s 2.5 mm 17.0° 1016.9 hPa 1.7 m/s
23:00 18.6° 1017.8 hPa 2.9 m/s 43.6 mm 18.9° 1016.0 hPa 3.1 m/s 193.4 mm 18.8° 1018.5 hPa 1.3 m/s 0.0 mm 15.8° 1018.2 hPa 1.7 m/s
 06:30     20:28    Daglengte: 13:58 Zaterdag 20 Aug
02:00 17.0° 1017.9 hPa 2.6 m/s 66.0 mm 15.7° 1015.9 hPa 3.0 m/s 193.4 mm 17.9° 1018.6 hPa 1.1 m/s 0.0 mm 15.2° 1018.0 hPa 1.6 m/s
05:00 16.6° 1017.8 hPa 1.8 m/s 67.3 mm 14.4° 1016.1 hPa 2.9 m/s 193.4 mm 17.1° 1018.4 hPa 0.9 m/s 0.0 mm 14.7° 1017.7 hPa 1.0 m/s
08:00 17.2° 1018.4 hPa 1.4 m/s 21.8 mm 16.8° 1017.0 hPa 3.5 m/s 193.4 mm 17.2° 1019.3 hPa 0.4 m/s 0.0 mm 15.8° 1017.9 hPa 0.8 m/s
11:00 20.1° 1018.6 hPa 2.6 m/s 21.6 mm 19.1° 1018.1 hPa 4.0 m/s 193.4 mm 20.6° 1019.3 hPa 2.6 m/s 0.2 mm 21.4° 1017.4 hPa 1.9 m/s
14:00 21.0° 1018.6 hPa 2.5 m/s 0.0 mm 20.5° 1017.6 hPa 2.1 m/s 194.5 mm 21.2° 1018.8 hPa 2.6 m/s 0.0 mm 21.8° 1017.7 hPa 3.3 m/s
17:00 21.8° 1018.0 hPa 3.0 m/s 43.9 mm 23.1° 1016.8 hPa 2.3 m/s 196.4 mm 21.5° 1018.3 hPa 3.2 m/s 0.4 mm 22.1° 1017.1 hPa 1.5 m/s
20:00 20.0° 1018.8 hPa 1.8 m/s 22.0 mm 20.9° 1016.6 hPa 2.3 m/s 196.4 mm 19.8° 1019.3 hPa 1.7 m/s 0.4 mm 18.6° 1017.6 hPa 0.2 m/s
23:00 17.9° 1019.1 hPa 0.8 m/s 21.9 mm 16.8° 1016.7 hPa 1.8 m/s 196.4 mm 18.2° 1019.7 hPa 0.5 m/s 0.1 mm 14.7° 1019.2 hPa 1.1 m/s
 06:32     20:27    Daglengte: 13:55 Zondag 21 Aug
02:00 16.7° 1018.8 hPa 1.0 m/s 65.7 mm 14.7° 1016.6 hPa 1.6 m/s 196.4 mm 17.2° 1019.3 hPa 0.8 m/s 0.4 mm 13.8° 1018.8 hPa 0.8 m/s
05:00 13.3° 1017.4 hPa 0.7 m/s 86.2 mm 13.3° 1017.4 hPa 0.7 m/s 86.2 mm
08:00 14.7° 1017.6 hPa 0.3 m/s 86.2 mm 14.7° 1017.6 hPa 0.3 m/s 86.2 mm
11:00 20.0° 1016.4 hPa 1.0 m/s 86.4 mm 20.0° 1016.4 hPa 1.0 m/s 86.4 mm
14:00 21.5° 1015.2 hPa 1.4 m/s 87.8 mm 21.5° 1015.2 hPa 1.4 m/s 87.8 mm
17:00 21.5° 1014.8 hPa 1.2 m/s 89.9 mm 21.5° 1014.8 hPa 1.2 m/s 89.9 mm
20:00 17.4° 1015.6 hPa 1.3 m/s 91.3 mm 17.4° 1015.6 hPa 1.3 m/s 91.3 mm
23:00 15.5° 1016.9 hPa 1.3 m/s 92.0 mm 15.5° 1016.9 hPa 1.3 m/s 92.0 mm
 06:33     20:25    Daglengte: 13:52 Maandag 22 Aug
02:00 14.6° 1016.2 hPa 0.2 m/s 92.1 mm 14.6° 1016.2 hPa 0.2 m/s 92.1 mm
05:00 13.3° 1016.5 hPa 1.0 m/s 92.1 mm 13.3° 1016.5 hPa 1.0 m/s 92.1 mm
08:00 14.4° 1017.1 hPa 0.2 m/s 92.1 mm 14.4° 1017.1 hPa 0.3 m/s 92.1 mm
11:00 20.1° 1016.6 hPa 1.6 m/s 92.1 mm 20.1° 1016.6 hPa 1.6 m/s 92.1 mm
14:00 24.1° 1015.4 hPa 2.7 m/s 92.1 mm 24.1° 1015.4 hPa 2.7 m/s 92.1 mm
17:00 24.2° 1014.5 hPa 2.4 m/s 92.1 mm 24.2° 1014.5 hPa 2.4 m/s 92.1 mm
20:00 19.4° 1015.7 hPa 1.9 m/s 92.1 mm 19.4° 1015.7 hPa 1.9 m/s 92.1 mm
23:00 15.5° 1016.8 hPa 1.2 m/s 92.1 mm 15.5° 1016.8 hPa 1.2 m/s 92.1 mm
 06:34     20:23    Daglengte: 13:49 Dinsdag 23 Aug
02:00 12.8° 1017.4 hPa 0.8 m/s 92.1 mm 12.8° 1017.4 hPa 0.8 m/s 92.1 mm
05:00 11.5° 1018.2 hPa 0.9 m/s 92.1 mm 11.5° 1018.2 hPa 0.9 m/s 92.1 mm
08:00 13.4° 1018.9 hPa 0.6 m/s 92.1 mm 13.4° 1018.9 hPa 0.6 m/s 92.1 mm
11:00 20.4° 1017.8 hPa 2.2 m/s 92.1 mm 20.4° 1017.8 hPa 2.2 m/s 92.1 mm
14:00 24.9° 1016.4 hPa 4.0 m/s 92.1 mm 24.9° 1016.4 hPa 4.0 m/s 92.1 mm
17:00 24.9° 1015.7 hPa 3.9 m/s 92.1 mm 24.9° 1015.7 hPa 3.9 m/s 92.1 mm
20:00 18.4° 1016.3 hPa 2.0 m/s 92.1 mm 18.4° 1016.3 hPa 2.0 m/s 92.1 mm
23:00 14.0° 1017.7 hPa 1.0 m/s 92.1 mm 14.0° 1017.7 hPa 1.0 m/s 92.1 mm
 06:36     20:21    Daglengte: 13:45 Woensdag 24 Aug
02:00 12.2° 1017.8 hPa 0.6 m/s 92.1 mm 12.2° 1017.8 hPa 0.6 m/s 92.1 mm
05:00 10.9° 1018.0 hPa 0.8 m/s 92.1 mm 10.9° 1018.0 hPa 0.8 m/s 92.1 mm
08:00 12.7° 1018.4 hPa 0.6 m/s 92.1 mm 12.7° 1018.4 hPa 0.6 m/s 92.1 mm
11:00 19.6° 1017.7 hPa 1.9 m/s 92.1 mm 19.6° 1017.7 hPa 1.9 m/s 92.1 mm
14:00 24.4° 1016.2 hPa 2.5 m/s 92.1 mm 24.5° 1016.2 hPa 2.5 m/s 92.1 mm
17:00 25.7° 1015.3 hPa 2.5 m/s 92.1 mm 25.7° 1015.3 hPa 2.5 m/s 92.1 mm
20:00 19.0° 1016.1 hPa 1.3 m/s 92.1 mm 19.0° 1016.1 hPa 1.3 m/s 92.1 mm
23:00 14.9° 1017.6 hPa 0.8 m/s 92.1 mm 14.9° 1017.6 hPa 0.8 m/s 92.1 mm
 06:37     20:19    Daglengte: 13:42 Donderdag 25 Aug
02:00 13.4° 1017.6 hPa 0.5 m/s 92.1 mm 13.4° 1017.6 hPa 0.5 m/s 92.1 mm
08:00 14.3° 1018.5 hPa 0.5 m/s 92.1 mm 14.3° 1018.5 hPa 0.5 m/s 92.1 mm
14:00 26.2° 1016.2 hPa 1.3 m/s 92.1 mm 26.2° 1016.2 hPa 1.3 m/s 92.1 mm
20:00 20.7° 1015.6 hPa 0.3 m/s 92.1 mm 20.7° 1015.6 hPa 0.3 m/s 92.1 mm
 06:38     20:17    Daglengte: 13:39 Vrijdag 26 Aug
02:00 15.5° 1017.1 hPa 0.6 m/s 92.1 mm 15.5° 1017.1 hPa 0.6 m/s 92.1 mm
08:00 16.3° 1016.9 hPa 0.5 m/s 92.1 mm 16.3° 1016.9 hPa 0.5 m/s 92.1 mm
14:00 28.4° 1014.2 hPa 1.0 m/s 92.1 mm 28.4° 1014.2 hPa 1.0 m/s 92.1 mm
20:00 22.4° 1013.1 hPa 1.0 m/s 92.1 mm 22.4° 1013.1 hPa 1.0 m/s 92.1 mm
 06:40     20:15    Daglengte: 13:35 Zaterdag 27 Aug
02:00 17.6° 1014.8 hPa 1.3 m/s 92.1 mm 17.6° 1014.8 hPa 1.3 m/s 92.1 mm
08:00 17.4° 1016.4 hPa 0.4 m/s 93.0 mm 17.4° 1016.4 hPa 0.4 m/s 93.0 mm
14:00 28.7° 1015.1 hPa 0.9 m/s 93.0 mm 28.7° 1015.1 hPa 0.9 m/s 93.0 mm
20:00 21.2° 1018.5 hPa 1.2 m/s 1.1 mm
 06:41     20:13    Daglengte: 13:32 Zondag 28 Aug
02:00 16.8° 1019.7 hPa 0.3 m/s 0.7 mm
08:00 16.7° 1020.0 hPa 0.3 m/s 0.6 mm
14:00 25.2° 1018.8 hPa 1.4 m/s 0.5 mm
20:00 20.9° 1019.4 hPa 0.7 m/s 1.2 mm
 06:42     20:11    Daglengte: 13:29 Maandag 29 Aug
02:00 16.7° 1020.5 hPa 0.2 m/s 0.8 mm
08:00 16.5° 1020.5 hPa 0.2 m/s 1.0 mm
14:00 25.1° 1019.3 hPa 1.2 m/s 0.8 mm
20:00 20.3° 1019.3 hPa 0.8 m/s 1.0 mm
 06:44     20:10    Daglengte: 13:26 Dinsdag 30 Aug
02:00 16.0° 1020.3 hPa 0.4 m/s 0.6 mm
08:00 16.0° 1020.1 hPa 0.1 m/s 0.4 mm